Torna al catalogo

COSMOS 2251 DEB

AttivoLEO
NORAD 37089·DEBRIS·🇷🇺 Russia

Lanciato Jun 16, 1993 da Plesetsk Cosmodrome

Loading…

Prossimi Passaggi (prossime 24 ore)

TLE

ObsoletoSource: Space-Track

Epoca: Sep 7, 2026, 13:50 UTC

1 37089U 93036BFK 26250.57644001  .00003324  00000-0  66265-3 0  9990
2 37089  74.0377 356.2361 0128775  28.0511 332.7513 14.57236690700217

Traccia COSMOS 2251 DEB in tempo reale con AllMySat

Download on the App Store